[[{"header":{"parameterUnit":"m.s-1","parameterCategory":1,"la1":30.2991,"la2":30.254,"lo1":-89.0895,"lo2":-89.0444,"dy":0.0017,"dx":0.0017,"nx":28,"ny":28,"refTime":"2024-12-07T09:00:00:Z","depth":0,"parameterNumber":2,"parameterNumberName":"U-component_of_WINDS"},"data":[0,0,0,0,0,0,0,0,0,0,0,0,0,0,0,0,0,0,0,0,0,0,0,0,0,0,0,0,0,0,0,0,0,0,0,0,0,0,0,0,0,0,0,0,0,0,0,0,0,0,0,0,0,0,0,0,0,0,-2.6996,-2.6996,0,-2.7019,-2.7019,-2.7019,-2.6885,-2.6881,-2.6878,-2.6874,-2.69,-2.6904,-2.6908,0,0,0,0,0,0,0,0,0,0,0,0,0,-2.6836,-2.684,-2.6996,-2.6996,-2.6996,-2.7019,-2.7019,-2.7019,-2.6886,-2.6881,-2.6877,-2.6872,-2.6899,-2.6904,-2.6909,0,0,0,0,0,0,0,0,0,0,0,0,0,-2.6887,-2.6841,-2.6995,-2.6932,-2.6927,-2.7019,-2.7019,-2.7019,-2.6887,-2.6881,-2.6875,-2.687,-2.6897,-2.6903,-2.6909,-2.7064,0,0,-2.6929,-2.6932,0,0,0,0,0,0,0,0,-2.6885,-2.6893,-2.6941,-2.6937,-2.6931,-2.6943,-2.6972,-2.7034,-2.6888,-2.6902,-2.6874,-2.6867,-2.6919,-2.6923,-2.694,-2.7065,-2.7066,-2.693,-2.6933,-2.6936,-2.6938,0,0,0,0,0,0,0,-2.6881,-2.6892,-2.7005,-2.6942,-2.6936,-2.6903,-2.6904,-2.6983,-2.6943,-2.6901,-2.6891,-2.6895,-2.6915,-2.6935,-2.694,-2.7067,-2.6929,-2.6935,-2.6939,-2.6942,-2.7319,-2.7325,0,0,0,0,0,0,-2.6886,-2.689,-2.7004,-2.7005,-2.6893,-2.691,-2.6911,-2.6945,-2.6941,-2.6935,-2.69,-2.6889,-2.6926,-2.6933,-2.694,-2.7122,-2.6936,-2.6942,-2.6946,-2.7313,-2.732,-2.7327,0,0,0,0,0,0,-2.6883,-2.6897,-2.7003,-2.6945,-2.6956,-2.6919,-2.6958,-2.6949,-2.6968,-2.6941,-2.6933,-2.6928,-2.6922,-2.6931,-2.7034,-2.7121,-2.6945,-2.6951,-2.7305,-2.7315,-2.7324,-2.7485,0,0,0,0,0,0,-2.6879,-2.6897,-2.6956,-2.6947,-2.6959,-2.7097,-2.6963,-2.6953,-2.6979,-2.6964,-2.6965,-2.6959,-2.6918,-2.7025,-2.704,-2.7126,-2.6956,-2.7298,-2.731,-2.7321,-2.7472,-2.7499,-2.7522,0,0,0,0,0,-2.6874,-2.7001,-2.6959,-2.6974,-2.7031,-2.7102,-2.7109,-2.7059,-2.6986,-2.7045,-2.7027,-2.6959,-2.7108,-2.7037,-2.7053,-2.7142,-2.7292,-2.7306,-2.732,-2.7461,-2.7494,-2.7521,0,0,0,0,0,0,-2.7021,-2.6998,-2.6952,-2.708,-2.7094,-2.7079,-2.7152,-2.7095,-2.713,-2.7116,-2.7052,-2.7053,-2.7167,-2.7164,-2.7085,-2.7291,-2.7187,-2.7205,-2.7289,-2.732,-2.7345,-2.7344,-2.6961,0,0,0,0,0,-2.7068,-2.7127,-2.7104,-2.7219,-2.7228,-2.7189,-2.7218,-2.7178,-2.719,-2.7195,-2.7185,-2.72,-2.725,-2.7284,-2.7329,-2.747,-2.7468,-2.7539,-2.7564,-2.7584,-2.7601,-2.7676,-2.7708,-2.7373,-2.7373,-2.7372,0,0,-2.7167,-2.7162,-2.7203,-2.7248,-2.7254,-2.7317,-2.7195,-2.7266,-2.7312,-2.7206,-2.7303,-2.7296,-2.7308,-2.7431,-2.7484,-2.7432,-2.7693,-2.7602,-2.7619,-2.7625,-2.7694,-2.7726,-2.7754,-2.7382,-2.738,-2.7379,0,0,-2.7379,-2.7381,-2.7477,-2.7485,-2.7495,-2.7468,-2.7491,-2.7484,-2.7476,-2.7571,-2.7493,-2.7546,-2.7633,-2.7645,-2.7663,-2.7878,-2.7817,-2.7894,-2.8025,-2.8099,-2.8125,-2.8149,-2.8227,-2.8255,-2.791,-2.7911,-2.7911,0,-2.7501,-2.7592,-2.7534,-2.761,-2.7633,-2.7538,-2.7635,-2.7646,-2.7671,-2.7689,-2.7629,-2.7736,-2.7737,-2.7862,-2.7914,-2.7931,-2.7956,-2.7895,-2.8126,-2.8149,-2.8169,-2.8243,-2.8273,-2.792,-2.7919,-2.7918,-2.7917,0,-2.7742,-2.7806,-2.7882,-2.7908,-2.7938,-2.8025,-2.798,-2.8018,-2.7975,-2.7954,-2.8053,-2.805,-2.8093,-2.8119,-2.8077,-2.8238,-2.8205,-2.8137,-2.8032,-2.8212,-2.828,-2.8308,-2.7934,-2.793,-2.7928,-2.7925,0,0,-2.805,-2.8041,-2.807,-2.8081,-2.8084,-2.8133,-2.8215,-2.8255,-2.829,-2.8309,-2.8377,-2.8452,-2.8389,-2.8409,-2.8367,-2.8432,-2.8604,-2.8356,-2.8355,-2.8403,-2.8781,-2.8834,-2.8868,-2.8562,-2.8567,-2.8571,-2.8781,0,-2.8259,-2.8399,-2.8348,-2.8491,-2.855,-2.846,-2.8531,-2.8541,-2.8524,-2.8571,-2.8551,-2.8606,-2.8517,-2.8529,-2.8588,-2.8571,-2.8679,-2.8554,-2.8626,-2.8629,-2.8628,-2.8903,-2.896,-2.9158,-2.8807,-2.8811,-2.8815,0,-2.8522,-2.8552,-2.8701,-2.8694,-2.8716,-2.8782,-2.8815,-2.8861,-2.887,-2.8852,-2.8874,-2.8819,-2.8899,-2.8792,-2.8902,-2.8818,-2.8844,-2.8839,-2.8846,-2.8853,-2.8735,-2.892,-2.922,-2.9251,-2.8856,-2.8853,-2.885,0,-2.8735,-2.8811,-2.8911,-2.8922,-2.8916,-2.8964,-2.8963,-2.8966,-2.8994,-2.9022,-2.904,-2.9077,-2.9099,-2.9129,-2.9085,-2.9011,-2.9202,-2.9091,-2.9191,-2.9193,-2.9238,-2.9236,-2.9549,-2.9251,-2.925,-2.925,-2.9249,0,-2.8975,-2.907,-2.9006,-2.9068,-2.9172,-2.9111,-2.9216,-2.9205,-2.9209,-2.9267,-2.919,-2.9246,-2.9183,-2.9234,-2.92,-2.9296,-2.9306,-2.9295,-2.9285,-2.9303,-2.9305,-2.9321,-2.9307,-2.9258,-2.9256,-2.9254,-2.9253,0,-2.9231,-2.9192,-2.9294,-2.9279,-2.9277,-2.9355,-2.9342,-2.9398,-2.9373,-2.9448,-2.9462,-2.9424,-2.9479,-2.9438,-2.9492,-2.9469,-2.9597,-2.9567,-2.9595,-2.9587,-2.969,-2.9682,-3.0026,-3.0069,-2.9742,-2.9745,-2.9747,0,-2.9388,-2.9459,-2.9451,-2.9484,-2.9489,-2.9543,-2.957,-2.9513,-2.9544,-2.9559,-2.9614,-2.9662,-2.9698,-2.979,-2.9768,-2.9809,-2.9781,-2.9898,-2.9787,-2.9803,-2.9785,-2.9782,-2.9789,-2.9922,-2.9926,-2.9929,-2.9932,0,-2.9672,-2.9648,-2.969,-2.9726,-2.9761,-2.9786,-2.9805,-2.9837,-2.9778,-2.9818,-2.9873,-2.99,-2.9955,-3.0005,-3.0037,-3.0037,-2.9976,-2.9966,-2.9992,-3.0013,-3.0027,-3.0022,-2.9659,-2.996,-2.9957,-2.9955,-2.9953,-2.9952,-2.9884,-2.9943,-2.9947,-2.9997,-3.0004,-3.0024,-3.0076,-3.0058,-3.0102,-3.0143,-3.0105,-3.0172,-3.0178,-3.0216,-3.0223,-3.0274,-3.0225,-3.0262,-3.0272,-3.0282,-3.0298,-3.0016,-3.0279,-3.0278,-3.0278,-3.0277,-3.0276,0,-3.0165,-3.0163,-3.0209,-3.0238,-3.0277,-3.0213,-3.0231,-3.0268,-3.0327,-3.0338,-3.0374,-3.0437,-3.0484,-3.0465,-3.0506,-3.0551,-3.0524,-3.0564,-3.0561,-3.0563,-3.0338,-3.0313,-3.0585,-3.0585,-3.0585,-3.0585,-3.0585,-3.0585,-3.0317,-3.0414,-3.0391,-3.0491,-3.0487,-3.0551,-3.0567,-3.0584,-3.0592,-3.0666,-3.0705,-3.0691,-3.069,-3.073,-3.077,-3.0763,-3.0783,-3.0834,-3.0817,-3.0609,-3.0578,-3.0549,-3.0525,-3.0838,-3.0838,-3.1037,-3.1039,-3.1041]},{"header":{"parameterUnit":"m.s-1","parameterCategory":1,"la1":30.2991,"la2":30.254,"lo1":-89.0895,"lo2":-89.0444,"dy":0.0017,"dx":0.0017,"nx":28,"ny":28,"refTime":"2024-12-07T09:00:00:Z","depth":0,"parameterNumber":3,"parameterNumberName":"V-component_of_WINDS"},"data":[0,0,0,0,0,0,0,0,0,0,0,0,0,0,0,0,0,0,0,0,0,0,0,0,0,0,0,0,0,0,0,0,0,0,0,0,0,0,0,0,0,0,0,0,0,0,0,0,0,0,0,0,0,0,0,0,0,0,-5.0476,-5.0477,0,-5.0527,-5.0528,-5.0528,-5.0452,-5.0449,-5.0447,-5.0444,-5.0492,-5.0496,-5.0499,0,0,0,0,0,0,0,0,0,0,0,0,0,-5.0308,-5.0312,-5.0476,-5.0477,-5.0477,-5.0527,-5.0528,-5.0528,-5.0452,-5.0449,-5.0446,-5.0443,-5.0491,-5.0495,-5.05,0,0,0,0,0,0,0,0,0,0,0,0,0,-5.0372,-5.0313,-5.0476,-5.0446,-5.0443,-5.0527,-5.0528,-5.0528,-5.0453,-5.0449,-5.0445,-5.0441,-5.0489,-5.0495,-5.05,-5.0615,0,0,-5.0517,-5.052,0,0,0,0,0,0,0,0,-5.0369,-5.0378,-5.0449,-5.0448,-5.0446,-5.0479,-5.0486,-5.0557,-5.0454,-5.0449,-5.0444,-5.0439,-5.0491,-5.0496,-5.0514,-5.0617,-5.0619,-5.0518,-5.0521,-5.0524,-5.0525,0,0,0,0,0,0,0,-5.0364,-5.0376,-5.0496,-5.0451,-5.0448,-5.0428,-5.0432,-5.0499,-5.0491,-5.0449,-5.0444,-5.0451,-5.0489,-5.0509,-5.0515,-5.0619,-5.0518,-5.0523,-5.0526,-5.0528,-5.0816,-5.082,0,0,0,0,0,0,-5.0364,-5.0373,-5.0494,-5.0498,-5.0397,-5.0434,-5.0439,-5.0472,-5.0491,-5.049,-5.0455,-5.0448,-5.0501,-5.0508,-5.0516,-5.0649,-5.0524,-5.0529,-5.0532,-5.0812,-5.0817,-5.0822,0,0,0,0,0,0,-5.0361,-5.0376,-5.0492,-5.0434,-5.0447,-5.0441,-5.0479,-5.0475,-5.0495,-5.0495,-5.0492,-5.0477,-5.0498,-5.0508,-5.059,-5.065,-5.0532,-5.0537,-5.0807,-5.0813,-5.0819,-5.0918,0,0,0,0,0,0,-5.0356,-5.0375,-5.042,-5.0435,-5.045,-5.0568,-5.0483,-5.0479,-5.0506,-5.0497,-5.0515,-5.0514,-5.0496,-5.0582,-5.0596,-5.0656,-5.0541,-5.0801,-5.081,-5.0817,-5.091,-5.0927,-5.0942,0,0,0,0,0,-5.0351,-5.0445,-5.0422,-5.0438,-5.0506,-5.0572,-5.058,-5.0559,-5.0511,-5.0555,-5.0554,-5.0513,-5.0642,-5.0592,-5.0606,-5.0668,-5.0798,-5.0807,-5.0817,-5.0902,-5.0924,-5.0942,0,0,0,0,0,0,-5.0435,-5.0447,-5.0422,-5.0524,-5.0548,-5.0559,-5.0613,-5.0582,-5.0619,-5.0609,-5.0579,-5.0584,-5.0672,-5.0678,-5.0622,-5.0779,-5.0711,-5.0724,-5.0771,-5.0792,-5.0808,-5.0804,-5.0546,0,0,0,0,0,-5.0466,-5.052,-5.0526,-5.0616,-5.0629,-5.062,-5.0647,-5.0629,-5.0651,-5.066,-5.0665,-5.0687,-5.0732,-5.0762,-5.0804,-5.091,-5.0912,-5.096,-5.0977,-5.099,-5.1001,-5.1056,-5.1077,-5.0853,-5.0853,-5.0853,0,0,-5.053,-5.0543,-5.0578,-5.0633,-5.0649,-5.0703,-5.0628,-5.0689,-5.0728,-5.0669,-5.0747,-5.0752,-5.0774,-5.0869,-5.091,-5.0876,-5.1063,-5.1002,-5.1013,-5.1017,-5.1068,-5.1089,-5.1108,-5.086,-5.0859,-5.0858,0,0,-5.0674,-5.069,-5.0766,-5.0783,-5.0809,-5.0802,-5.082,-5.0836,-5.0837,-5.0915,-5.0871,-5.0916,-5.0995,-5.1012,-5.1032,-5.1181,-5.1144,-5.1195,-5.128,-5.1334,-5.1352,-5.1367,-5.1419,-5.1438,-5.1207,-5.1207,-5.1207,0,-5.0749,-5.0831,-5.0808,-5.0872,-5.0897,-5.0846,-5.0922,-5.0939,-5.0977,-5.0994,-5.0956,-5.1053,-5.1065,-5.1161,-5.1198,-5.1216,-5.1234,-5.1193,-5.1351,-5.1367,-5.1381,-5.1429,-5.1449,-5.1213,-5.1212,-5.1212,-5.1211,0,-5.0922,-5.0979,-5.1037,-5.1075,-5.1106,-5.1176,-5.1161,-5.1195,-5.1174,-5.117,-5.1249,-5.1262,-5.1304,-5.1326,-5.1306,-5.142,-5.1398,-5.1357,-5.1288,-5.1408,-5.1454,-5.1472,-5.1221,-5.1219,-5.1217,-5.1216,0,0,-5.112,-5.1145,-5.1166,-5.1182,-5.1207,-5.1249,-5.1315,-5.1358,-5.1387,-5.1414,-5.1467,-5.1535,-5.1496,-5.1518,-5.1499,-5.1547,-5.1662,-5.1499,-5.1499,-5.1527,-5.1786,-5.1817,-5.1839,-5.1638,-5.1642,-5.1645,-5.1784,0,-5.1262,-5.1378,-5.1359,-5.147,-5.1522,-5.1474,-5.1531,-5.1551,-5.155,-5.1591,-5.1588,-5.1636,-5.1583,-5.1595,-5.164,-5.1639,-5.1713,-5.1628,-5.1686,-5.1688,-5.168,-5.1863,-5.1895,-5.2026,-5.1802,-5.1805,-5.1807,0,-5.1444,-5.1478,-5.1595,-5.161,-5.1631,-5.1683,-5.172,-5.1761,-5.1782,-5.1777,-5.1801,-5.1773,-5.1837,-5.1769,-5.1855,-5.1798,-5.182,-5.1822,-5.1827,-5.183,-5.1754,-5.187,-5.2068,-5.2087,-5.1835,-5.1833,-5.1831,0,-5.1574,-5.1651,-5.173,-5.1745,-5.1765,-5.1802,-5.1812,-5.1829,-5.1856,-5.1887,-5.1904,-5.1942,-5.1963,-5.1992,-5.1974,-5.1927,-5.2063,-5.1994,-5.2059,-5.206,-5.2089,-5.2087,-5.2292,-5.2107,-5.2106,-5.2106,-5.2105,0,-5.1734,-5.1807,-5.1789,-5.1838,-5.1917,-5.1894,-5.1972,-5.1976,-5.1992,-5.2039,-5.2,-5.2045,-5.2019,-5.2061,-5.2048,-5.212,-5.213,-5.2127,-5.2122,-5.2129,-5.213,-5.2143,-5.2132,-5.2111,-5.211,-5.2109,-5.2108,0,-5.1894,-5.1885,-5.1968,-5.198,-5.1984,-5.2042,-5.2051,-5.2096,-5.2091,-5.2151,-5.2164,-5.2156,-5.2203,-5.2189,-5.224,-5.223,-5.2322,-5.2306,-5.2316,-5.2311,-5.2377,-5.237,-5.2596,-5.2623,-5.2421,-5.2423,-5.2425,0,-5.1996,-5.2051,-5.2069,-5.2098,-5.2111,-5.2159,-5.2186,-5.2164,-5.2193,-5.2221,-5.2262,-5.2306,-5.234,-5.2418,-5.2416,-5.2454,-5.2438,-5.2515,-5.2444,-5.2449,-5.2437,-5.2434,-5.2438,-5.2528,-5.2531,-5.2533,-5.2534,0,-5.2177,-5.217,-5.2211,-5.225,-5.2284,-5.2313,-5.2339,-5.2365,-5.2345,-5.2379,-5.2428,-5.2455,-5.2507,-5.2551,-5.2586,-5.2593,-5.256,-5.2557,-5.2573,-5.2581,-5.2583,-5.2581,-5.2353,-5.2551,-5.255,-5.2548,-5.2547,-5.2547,-5.2309,-5.2356,-5.2375,-5.2422,-5.2439,-5.2464,-5.2506,-5.2507,-5.2548,-5.2589,-5.2574,-5.2629,-5.2647,-5.269,-5.2703,-5.2745,-5.2715,-5.274,-5.2746,-5.2752,-5.276,-5.2578,-5.2751,-5.2751,-5.275,-5.275,-5.2749,0,-5.2487,-5.2498,-5.2541,-5.2579,-5.2615,-5.2582,-5.2608,-5.264,-5.269,-5.271,-5.2745,-5.28,-5.2842,-5.2843,-5.2882,-5.2915,-5.2901,-5.2926,-5.2923,-5.2925,-5.2785,-5.2766,-5.2937,-5.2937,-5.2937,-5.2937,-5.2937,-5.2937,-5.2584,-5.266,-5.2655,-5.2738,-5.2747,-5.2802,-5.282,-5.2842,-5.2858,-5.2922,-5.2957,-5.2958,-5.297,-5.3009,-5.3046,-5.3045,-5.306,-5.3091,-5.3084,-5.2953,-5.2935,-5.2917,-5.2898,-5.3095,-5.3095,-5.322,-5.3221,-5.3222]}]]